Time,TemperatureF,DewpointF,PressureIn,WindDirection,WindDirectionDegrees,WindSpeedMPH,WindSpeedGustMPH,Humidity,HourlyPrecipIn,Conditions,Clouds,dailyrainin,SolarRadiationWatts/m^2,SoftwareType,DateUTC
2013-02-28 00:00:00,38.3,31.5,29.70,North,350,0.0,3.0,76,0.00,,,0.01,0.0,meteohub,2013-02-28 05:00:00,
2013-02-28 00:02:00,38.3,31.5,29.70,SE,134,1.0,4.0,76,0.00,,,0.01,0.0,meteohub,2013-02-28 05:02:00,
2013-02-28 00:07:00,38.1,31.3,29.70,NNW,343,0.0,4.0,76,0.00,,,0.00,0.0,meteohub,2013-02-28 05:07:00,
2013-02-28 00:12:00,38.3,30.7,29.70,South,190,0.0,4.0,74,0.00,,,0.00,0.0,meteohub,2013-02-28 05:12:00,
2013-02-28 00:15:00,38.5,30.6,29.70,South,187,0.0,4.0,73,0.00,,,0.00,0.0,meteohub,2013-02-28 05:15:00,
2013-02-28 00:21:00,38.5,29.8,29.70,SW,226,1.0,4.0,71,0.00,,,0.00,0.0,meteohub,2013-02-28 05:21:00,
2013-02-28 00:27:00,38.8,28.8,29.69,NW,319,0.0,13.0,67,0.00,,,0.00,0.0,meteohub,2013-02-28 05:27:00,
2013-02-28 00:32:00,39.0,28.9,29.69,North,0,5.0,13.0,67,0.00,,,0.00,0.0,meteohub,2013-02-28 05:32:00,
2013-02-28 00:37:00,39.0,28.6,29.69,SW,221,0.0,19.0,66,0.00,,,0.00,0.0,meteohub,2013-02-28 05:37:00,
2013-02-28 00:42:00,39.0,28.6,29.69,SSW,205,1.0,19.0,66,0.00,,,0.00,0.0,meteohub,2013-02-28 05:42:00,
2013-02-28 00:47:00,38.8,28.4,29.69,WSW,246,2.0,19.0,66,0.00,,,0.00,0.0,meteohub,2013-02-28 05:47:00,
2013-02-28 00:52:00,38.8,28.8,29.70,WNW,292,0.0,16.0,67,0.00,,,0.00,0.0,meteohub,2013-02-28 05:52:00,
2013-02-28 00:57:00,38.8,28.8,29.70,West,271,1.0,7.0,67,0.00,,,0.00,0.0,meteohub,2013-02-28 05:57:00,
2013-02-28 01:02:00,38.7,28.6,29.69,North,355,0.0,6.0,67,0.00,,,0.00,0.0,meteohub,2013-02-28 06:02:00,
2013-02-28 01:07:00,38.5,28.8,29.69,SSW,208,0.0,4.0,68,0.00,,,0.00,0.0,meteohub,2013-02-28 06:07:00,
2013-02-28 01:12:00,38.1,28.6,29.69,NW,319,0.0,4.0,68,0.00,,,0.00,0.0,meteohub,2013-02-28 06:12:00,
2013-02-28 01:17:00,37.9,28.0,29.69,North,355,2.0,6.0,67,0.00,,,0.00,0.0,meteohub,2013-02-28 06:17:00,
2013-02-28 01:22:00,37.9,27.7,29.70,NNE,24,2.0,6.0,66,0.00,,,0.00,0.0,meteohub,2013-02-28 06:22:00,
2013-02-28 01:27:00,37.9,27.7,29.70,North,0,0.0,7.0,66,0.00,,,0.00,0.0,meteohub,2013-02-28 06:27:00,
2013-02-28 01:32:00,37.9,28.0,29.69,SE,127,2.0,7.0,67,0.00,,,0.00,0.0,meteohub,2013-02-28 06:32:00,
2013-02-28 01:37:00,37.9,28.0,29.69,ESE,123,5.0,7.0,67,0.00,,,0.00,0.0,meteohub,2013-02-28 06:37:00,
2013-02-28 01:42:00,37.8,27.9,29.69,SSW,202,5.0,6.0,67,0.00,,,0.00,0.0,meteohub,2013-02-28 06:42:00,
2013-02-28 01:47:00,37.8,27.9,29.69,ESE,123,0.0,18.0,67,0.00,,,0.00,0.0,meteohub,2013-02-28 06:47:00,
2013-02-28 01:52:00,37.6,27.7,29.69,North,11,0.0,18.0,67,0.00,,,0.00,0.0,meteohub,2013-02-28 06:52:00,
2013-02-28 01:57:00,37.4,27.5,29.69,North,5,3.0,18.0,67,0.00,,,0.00,0.0,meteohub,2013-02-28 06:57:00,
2013-02-28 02:03:00,37.2,27.7,29.68,SSW,202,2.0,15.0,68,0.00,,,0.00,0.0,meteohub,2013-02-28 07:03:00,
2013-02-28 02:09:00,37.0,27.5,29.68,North,355,2.0,15.0,68,0.00,,,0.00,0.0,meteohub,2013-02-28 07:09:00,
2013-02-28 02:15:00,36.9,27.0,29.68,North,11,2.0,5.0,67,0.00,,,0.00,0.0,meteohub,2013-02-28 07:15:00,
2013-02-28 02:21:00,36.9,27.0,29.68,West,260,3.0,9.0,67,0.00,,,0.00,0.0,meteohub,2013-02-28 07:21:00,
2013-02-28 02:27:00,36.9,27.0,29.68,North,5,1.0,9.0,67,0.00,,,0.00,0.0,meteohub,2013-02-28 07:27:00,
2013-02-28 02:32:00,36.7,27.1,29.68,SSW,207,1.0,9.0,68,0.00,,,0.00,0.0,meteohub,2013-02-28 07:32:00,
2013-02-28 02:37:00,36.5,26.2,29.68,SSW,193,3.0,10.0,66,0.00,,,0.00,0.0,meteohub,2013-02-28 07:37:00,
2013-02-28 02:42:00,36.7,26.4,29.68,NW,306,2.0,10.0,66,0.00,,,0.00,0.0,meteohub,2013-02-28 07:42:00,
2013-02-28 02:47:00,36.5,26.2,29.67,SE,140,1.0,14.0,66,0.00,,,0.00,0.0,meteohub,2013-02-28 07:47:00,
2013-02-28 02:52:00,36.3,26.1,29.67,SE,134,0.0,14.0,66,0.00,,,0.00,0.0,meteohub,2013-02-28 07:52:00,
2013-02-28 02:57:00,36.3,26.1,29.67,SSW,212,5.0,12.0,66,0.00,,,0.00,0.0,meteohub,2013-02-28 07:57:00,
2013-02-28 03:02:00,36.1,25.9,29.66,South,169,4.0,24.0,66,0.00,,,0.00,0.0,meteohub,2013-02-28 08:02:00,
2013-02-28 03:07:00,36.1,25.9,29.67,SW,219,1.0,24.0,66,0.00,,,0.00,0.0,meteohub,2013-02-28 08:07:00,
2013-02-28 03:12:00,36.0,25.7,29.67,WSW,256,0.0,24.0,66,0.00,,,0.00,0.0,meteohub,2013-02-28 08:12:00,
2013-02-28 03:17:00,35.8,25.5,29.66,North,10,1.0,9.0,66,0.00,,,0.00,0.0,meteohub,2013-02-28 08:17:00,
2013-02-28 03:22:00,35.6,25.3,29.66,WSW,238,1.0,6.0,66,0.00,,,0.00,0.0,meteohub,2013-02-28 08:22:00,
2013-02-28 03:27:00,35.4,24.8,29.66,WSW,244,2.0,6.0,65,0.00,,,0.00,0.0,meteohub,2013-02-28 08:27:00,
2013-02-28 03:32:00,35.4,24.8,29.66,South,186,3.0,7.0,65,0.00,,,0.00,0.0,meteohub,2013-02-28 08:32:00,
2013-02-28 03:37:00,35.6,25.0,29.66,ESE,121,0.0,8.0,65,0.00,,,0.00,0.0,meteohub,2013-02-28 08:37:00,
2013-02-28 03:42:00,35.4,25.2,29.67,SW,236,0.0,14.0,66,0.00,,,0.00,0.0,meteohub,2013-02-28 08:42:00,
2013-02-28 03:47:00,35.1,25.2,29.67,SW,234,0.0,14.0,67,0.00,,,0.00,0.0,meteohub,2013-02-28 08:47:00,
2013-02-28 03:52:00,35.1,25.2,29.67,West,271,0.0,14.0,67,0.00,,,0.00,0.0,meteohub,2013-02-28 08:52:00,
2013-02-28 03:58:00,34.9,25.3,29.67,SSW,212,1.0,5.0,68,0.00,,,0.00,0.0,meteohub,2013-02-28 08:58:00,
2013-02-28 04:04:00,34.5,25.3,29.67,WSW,253,0.0,5.0,69,0.00,,,0.00,0.0,meteohub,2013-02-28 09:04:00,
2013-02-28 04:10:00,34.3,25.2,29.67,NNW,337,1.0,2.0,69,0.00,,,0.00,0.0,meteohub,2013-02-28 09:10:00,
2013-02-28 04:16:00,34.2,25.3,29.66,South,188,0.0,5.0,70,0.00,,,0.00,0.0,meteohub,2013-02-28 09:16:00,
2013-02-28 04:22:00,34.0,25.5,29.66,NE,36,2.0,5.0,71,0.00,,,0.00,0.0,meteohub,2013-02-28 09:22:00,
2013-02-28 04:27:00,33.8,25.3,29.66,NNE,16,0.0,6.0,71,0.00,,,0.00,0.0,meteohub,2013-02-28 09:27:00,
2013-02-28 04:34:00,33.4,25.3,29.67,SW,215,1.0,7.0,72,0.00,,,0.00,0.0,meteohub,2013-02-28 09:34:00,
2013-02-28 04:40:00,33.3,25.2,29.67,East,94,1.0,2.0,72,0.00,,,0.00,0.0,meteohub,2013-02-28 09:40:00,
2013-02-28 04:46:00,33.3,24.8,29.67,WNW,302,4.0,4.0,71,0.00,,,0.00,0.0,meteohub,2013-02-28 09:46:00,
2013-02-28 04:52:00,33.3,24.8,29.67,WSW,248,1.0,4.0,71,0.00,,,0.00,0.0,meteohub,2013-02-28 09:52:00,
2013-02-28 04:57:00,33.3,24.8,29.67,SE,145,0.0,4.0,71,0.00,,,0.00,0.0,meteohub,2013-02-28 09:57:00,
2013-02-28 05:02:00,33.1,24.6,29.67,East,80,0.0,4.0,71,0.00,,,0.00,0.0,meteohub,2013-02-28 10:02:00,
2013-02-28 05:07:00,33.1,24.6,29.67,SSW,200,0.0,3.0,71,0.00,,,0.00,0.0,meteohub,2013-02-28 10:07:00,
2013-02-28 05:12:00,32.9,24.8,29.67,SSE,163,0.0,3.0,72,0.00,,,0.00,0.0,meteohub,2013-02-28 10:12:00,
2013-02-28 05:17:00,32.9,24.6,29.68,WSW,249,0.0,4.0,71,0.00,,,0.00,0.0,meteohub,2013-02-28 10:17:00,
2013-02-28 05:22:00,32.7,25.0,29.68,NE,38,0.0,4.0,73,0.00,,,0.00,0.0,meteohub,2013-02-28 10:22:00,
2013-02-28 05:27:00,32.5,24.4,29.68,NNW,343,0.0,4.0,72,0.00,,,0.00,0.0,meteohub,2013-02-28 10:27:00,
2013-02-28 05:32:00,32.7,24.6,29.68,East,82,0.0,2.0,72,0.00,,,0.00,0.0,meteohub,2013-02-28 10:32:00,
2013-02-28 05:37:00,32.7,24.6,29.68,NNW,334,0.0,3.0,72,0.00,,,0.00,0.0,meteohub,2013-02-28 10:37:00,
2013-02-28 05:42:00,32.7,24.6,29.68,NNW,329,0.0,3.0,72,0.00,,,0.00,0.0,meteohub,2013-02-28 10:42:00,
2013-02-28 05:47:00,32.5,24.8,29.68,NW,322,0.0,3.0,73,0.00,,,0.00,0.0,meteohub,2013-02-28 10:47:00,
2013-02-28 05:52:00,32.5,24.8,29.68,North,355,0.0,2.0,73,0.00,,,0.00,0.0,meteohub,2013-02-28 10:52:00,
2013-02-28 05:57:00,32.5,24.8,29.68,South,182,0.0,3.0,73,0.00,,,0.00,0.0,meteohub,2013-02-28 10:57:00,
2013-02-28 06:02:00,32.5,24.8,29.68,North,5,0.0,3.0,73,0.00,,,0.00,0.0,meteohub,2013-02-28 11:02:00,
2013-02-28 06:07:00,32.4,24.6,29.68,NW,326,0.0,3.0,73,0.00,,,0.00,0.0,meteohub,2013-02-28 11:07:00,
2013-02-28 06:12:00,32.4,24.6,29.68,NW,313,0.0,2.0,73,0.00,,,0.00,0.0,meteohub,2013-02-28 11:12:00,
2013-02-28 06:17:00,32.4,25.0,29.68,North,11,0.0,8.0,74,0.00,,,0.00,0.0,meteohub,2013-02-28 11:17:00,
2013-02-28 06:22:00,32.4,25.0,29.68,NNW,348,0.0,8.0,74,0.00,,,0.00,0.0,meteohub,2013-02-28 11:22:00,
2013-02-28 06:27:00,32.2,24.8,29.68,SSE,168,1.0,8.0,74,0.00,,,0.00,0.0,meteohub,2013-02-28 11:27:00,
2013-02-28 06:32:00,32.0,25.0,29.68,SW,214,0.0,3.0,75,0.00,,,0.00,0.0,meteohub,2013-02-28 11:32:00,
2013-02-28 06:37:00,31.8,24.4,29.68,ENE,69,0.0,3.0,74,0.00,,,0.00,0.0,meteohub,2013-02-28 11:37:00,
2013-02-28 06:42:00,31.8,24.4,29.68,ENE,62,0.0,4.0,74,0.00,,,0.00,0.0,meteohub,2013-02-28 11:42:00,
2013-02-28 06:47:00,31.6,24.6,29.68,ENE,57,0.0,4.0,75,0.00,,,0.00,0.0,meteohub,2013-02-28 11:47:00,
2013-02-28 06:52:00,31.6,24.6,29.68,North,5,0.0,4.0,75,0.00,,,0.00,0.0,meteohub,2013-02-28 11:52:00,
2013-02-28 06:57:00,31.6,25.3,29.69,North,11,0.0,3.0,77,0.00,,,0.00,0.0,meteohub,2013-02-28 11:57:00,
2013-02-28 07:02:00,31.6,25.5,29.69,NNE,15,0.0,3.0,78,0.00,,,0.00,7.0,meteohub,2013-02-28 12:02:00,
2013-02-28 07:07:00,31.6,25.9,29.69,NNE,15,0.0,4.0,79,0.00,,,0.00,11.0,meteohub,2013-02-28 12:07:00,
2013-02-28 07:12:00,31.5,25.7,29.69,NNE,15,0.0,4.0,79,0.00,,,0.00,16.0,meteohub,2013-02-28 12:12:00,
2013-02-28 07:17:00,31.5,25.7,29.69,NNE,14,0.0,2.0,79,0.00,,,0.00,25.0,meteohub,2013-02-28 12:17:00,
2013-02-28 07:22:00,31.6,25.9,29.70,NNE,20,0.0,2.0,79,0.00,,,0.00,25.0,meteohub,2013-02-28 12:22:00,
2013-02-28 07:27:00,31.8,25.7,29.70,North,349,0.0,2.0,78,0.00,,,0.00,21.0,meteohub,2013-02-28 12:27:00,
2013-02-28 07:32:00,32.0,25.9,29.70,North,349,0.0,2.0,78,0.00,,,0.00,30.0,meteohub,2013-02-28 12:32:00,
2013-02-28 07:37:00,32.2,25.7,29.70,NNW,341,0.0,2.0,77,0.00,,,0.00,40.0,meteohub,2013-02-28 12:37:00,
2013-02-28 07:42:00,32.2,25.7,29.70,NNW,341,0.0,0.0,77,0.00,,,0.00,49.0,meteohub,2013-02-28 12:42:00,
2013-02-28 07:47:00,32.2,26.1,29.70,NNW,341,0.0,0.0,78,0.00,,,0.00,37.0,meteohub,2013-02-28 12:47:00,
2013-02-28 07:52:00,32.0,25.7,29.71,NNW,341,0.0,0.0,77,0.00,,,0.00,28.0,meteohub,2013-02-28 12:52:00,
2013-02-28 07:57:00,31.8,25.5,29.71,NNW,341,0.0,0.0,77,0.00,,,0.00,40.0,meteohub,2013-02-28 12:57:00,
2013-02-28 08:02:00,31.8,26.1,29.71,NNW,341,0.0,0.0,79,0.00,,,0.00,186.0,meteohub,2013-02-28 13:02:00,
2013-02-28 08:07:00,32.4,25.9,29.71,NNW,341,0.0,0.0,77,0.00,,,0.00,200.0,meteohub,2013-02-28 13:07:00,
2013-02-28 08:12:00,33.4,27.0,29.71,NNW,344,0.0,1.0,77,0.00,,,0.00,213.0,meteohub,2013-02-28 13:12:00,
2013-02-28 08:17:00,34.3,27.0,29.71,SE,125,0.0,1.0,74,0.00,,,0.00,227.0,meteohub,2013-02-28 13:17:00,
2013-02-28 08:24:00,35.2,26.8,29.72,SE,139,0.0,1.0,71,0.00,,,0.00,192.0,meteohub,2013-02-28 13:24:00,
2013-02-28 08:30:00,35.6,26.8,29.72,NE,44,0.0,2.0,70,0.00,,,0.00,84.0,meteohub,2013-02-28 13:30:00,
2013-02-28 08:36:00,35.4,25.9,29.73,SW,230,0.0,2.0,68,0.00,,,0.00,76.0,meteohub,2013-02-28 13:36:00,
2013-02-28 08:42:00,35.2,25.3,29.73,ESE,121,0.0,6.0,67,0.00,,,0.00,95.0,meteohub,2013-02-28 13:42:00,
2013-02-28 08:47:00,34.9,24.6,29.73,North,351,0.0,6.0,66,0.00,,,0.00,118.0,meteohub,2013-02-28 13:47:00,
2013-02-28 08:52:00,34.7,25.9,29.73,North,351,0.0,6.0,70,0.00,,,0.00,100.0,meteohub,2013-02-28 13:52:00,
2013-02-28 08:57:00,34.7,26.6,29.73,ESE,121,2.0,4.0,72,0.00,,,0.00,113.0,meteohub,2013-02-28 13:57:00,
2013-02-28 09:02:00,34.7,25.9,29.73,SE,126,0.0,4.0,70,0.00,,,0.00,148.0,meteohub,2013-02-28 14:02:00,
2013-02-28 09:07:00,34.7,26.6,29.73,SE,126,0.0,4.0,72,0.00,,,0.00,255.0,meteohub,2013-02-28 14:07:00,
2013-02-28 09:12:00,35.1,26.2,29.73,SE,126,0.0,4.0,70,0.00,,,0.00,385.0,meteohub,2013-02-28 14:12:00,
2013-02-28 09:17:00,35.4,26.2,29.73,SE,126,0.0,2.0,69,0.00,,,0.00,179.0,meteohub,2013-02-28 14:17:00,
2013-02-28 09:22:00,35.6,25.0,29.73,East,100,2.0,2.0,65,0.00,,,0.00,158.0,meteohub,2013-02-28 14:22:00,
2013-02-28 09:27:00,35.8,26.6,29.73,SE,137,0.0,4.0,69,0.00,,,0.00,148.0,meteohub,2013-02-28 14:27:00,
2013-02-28 09:32:00,36.0,26.4,29.74,South,177,0.0,5.0,68,0.00,,,0.00,158.0,meteohub,2013-02-28 14:32:00,
2013-02-28 09:37:00,36.0,26.1,29.73,SE,137,0.0,5.0,67,0.00,,,0.00,156.0,meteohub,2013-02-28 14:37:00,
2013-02-28 09:42:00,36.1,25.9,29.74,SSE,153,0.0,4.0,66,0.00,,,0.00,206.0,meteohub,2013-02-28 14:42:00,
2013-02-28 09:47:00,36.3,25.3,29.74,SE,124,1.0,5.0,64,0.00,,,0.00,199.0,meteohub,2013-02-28 14:47:00,
2013-02-28 09:52:00,36.3,25.0,29.73,NW,311,1.0,5.0,63,0.00,,,0.00,301.0,meteohub,2013-02-28 14:52:00,
2013-02-28 09:57:00,36.7,25.7,29.73,SSW,212,1.0,5.0,64,0.00,,,0.00,204.0,meteohub,2013-02-28 14:57:00,
2013-02-28 10:02:00,37.0,25.2,29.73,North,355,1.0,3.0,62,0.00,,,0.00,149.0,meteohub,2013-02-28 15:02:00,
2013-02-28 10:07:00,37.2,25.7,29.73,SW,225,2.0,3.0,63,0.00,,,0.00,679.0,meteohub,2013-02-28 15:07:00,
2013-02-28 10:12:00,37.9,26.4,29.73,South,186,1.0,3.0,63,0.00,,,0.00,680.0,meteohub,2013-02-28 15:12:00,
2013-02-28 10:17:00,38.1,25.5,29.73,SSE,167,0.0,5.0,60,0.00,,,0.00,144.0,meteohub,2013-02-28 15:17:00,
2013-02-28 10:22:00,37.9,25.0,29.73,NNE,19,0.0,5.0,59,0.00,,,0.00,190.0,meteohub,2013-02-28 15:22:00,
2013-02-28 10:27:00,37.6,24.1,29.73,North,5,1.0,5.0,58,0.00,,,0.00,135.0,meteohub,2013-02-28 15:27:00,
2013-02-28 10:32:00,37.2,24.6,29.73,SW,219,0.0,5.0,60,0.00,,,0.00,151.0,meteohub,2013-02-28 15:32:00,
2013-02-28 10:37:00,37.2,25.0,29.73,NNE,22,2.0,4.0,61,0.00,,,0.00,171.0,meteohub,2013-02-28 15:37:00,
2013-02-28 10:42:00,37.2,24.6,29.73,SSW,207,0.0,4.0,60,0.00,,,0.00,178.0,meteohub,2013-02-28 15:42:00,
2013-02-28 10:47:00,37.4,25.2,29.73,SSE,165,0.0,3.0,61,0.00,,,0.00,244.0,meteohub,2013-02-28 15:47:00,
2013-02-28 10:52:00,37.6,25.0,29.73,SE,141,4.0,5.0,60,0.00,,,0.00,255.0,meteohub,2013-02-28 15:52:00,
2013-02-28 10:57:00,37.9,25.0,29.73,South,176,0.0,5.0,59,0.00,,,0.00,193.0,meteohub,2013-02-28 15:57:00,
2013-02-28 11:02:00,37.9,25.0,29.73,NNE,16,4.0,5.0,59,0.00,,,0.00,200.0,meteohub,2013-02-28 16:02:00,
2013-02-28 11:07:00,37.8,23.9,29.74,NNE,21,1.0,6.0,57,0.00,,,0.00,207.0,meteohub,2013-02-28 16:07:00,
2013-02-28 11:12:00,37.8,24.8,29.74,North,11,2.0,6.0,59,0.00,,,0.00,207.0,meteohub,2013-02-28 16:12:00,
2013-02-28 11:17:00,37.6,24.6,29.74,WSW,254,3.0,7.0,59,0.00,,,0.00,230.0,meteohub,2013-02-28 16:17:00,
2013-02-28 11:22:00,37.6,24.6,29.74,NNE,15,2.0,7.0,59,0.00,,,0.00,262.0,meteohub,2013-02-28 16:22:00,
2013-02-28 11:27:00,37.8,25.2,29.74,NE,36,3.0,7.0,60,0.00,,,0.00,265.0,meteohub,2013-02-28 16:27:00,
2013-02-28 11:34:00,37.4,24.8,29.73,North,5,2.0,9.0,60,0.00,,,0.00,230.0,meteohub,2013-02-28 16:34:00,
2013-02-28 11:40:00,37.8,25.2,29.73,SW,216,3.0,12.0,60,0.00,,,0.00,886.0,meteohub,2013-02-28 16:40:00,
2013-02-28 11:46:00,38.1,25.0,29.74,SSE,159,4.0,5.0,59,0.00,,,0.00,833.0,meteohub,2013-02-28 16:46:00,
2013-02-28 11:52:00,38.8,26.1,29.74,North,350,0.0,5.0,60,0.00,,,0.00,216.0,meteohub,2013-02-28 16:52:00,
2013-02-28 11:57:00,39.4,25.9,29.74,NNE,22,0.0,5.0,58,0.00,,,0.00,206.0,meteohub,2013-02-28 16:57:00,
2013-02-28 12:02:00,39.6,25.5,29.74,NNW,342,1.0,5.0,57,0.00,,,0.00,287.0,meteohub,2013-02-28 17:02:00,
2013-02-28 12:07:00,39.6,25.5,29.74,South,177,0.0,5.0,57,0.00,,,0.00,271.0,meteohub,2013-02-28 17:07:00,
2013-02-28 12:12:00,39.7,25.3,29.74,SSE,166,0.0,5.0,56,0.00,,,0.00,350.0,meteohub,2013-02-28 17:12:00,
2013-02-28 12:17:00,39.9,25.0,29.74,NNW,342,1.0,5.0,55,0.00,,,0.00,316.0,meteohub,2013-02-28 17:17:00,
2013-02-28 12:22:00,39.9,26.4,29.74,North,0,1.0,5.0,58,0.00,,,0.00,274.0,meteohub,2013-02-28 17:22:00,
2013-02-28 12:27:00,40.1,24.8,29.74,North,5,0.0,5.0,54,0.00,,,0.00,338.0,meteohub,2013-02-28 17:27:00,
2013-02-28 12:32:00,40.6,26.2,29.74,SSE,153,1.0,5.0,56,0.00,,,0.00,868.0,meteohub,2013-02-28 17:32:00,
2013-02-28 12:37:00,41.4,25.9,29.74,NNW,332,1.0,5.0,54,0.00,,,0.00,262.0,meteohub,2013-02-28 17:37:00,
2013-02-28 12:42:00,41.9,26.1,29.74,NNE,27,0.0,5.0,53,0.00,,,0.00,1069.0,meteohub,2013-02-28 17:42:00,
2013-02-28 12:47:00,41.9,25.5,29.74,NNW,329,2.0,4.0,52,0.00,,,0.00,257.0,meteohub,2013-02-28 17:47:00,
2013-02-28 12:52:00,41.2,24.8,29.74,NNW,338,0.0,6.0,52,0.00,,,0.00,178.0,meteohub,2013-02-28 17:52:00,
2013-02-28 12:57:00,40.8,24.6,29.74,NW,320,0.0,6.0,52,0.00,,,0.00,192.0,meteohub,2013-02-28 17:57:00,
2013-02-28 13:02:00,40.5,25.2,29.74,NW,323,0.0,6.0,54,0.00,,,0.00,202.0,meteohub,2013-02-28 18:02:00,
2013-02-28 13:08:00,40.3,25.0,29.73,North,355,2.0,3.0,54,0.00,,,0.00,214.0,meteohub,2013-02-28 18:08:00,
2013-02-28 13:14:00,39.9,24.6,29.73,NE,54,0.0,5.0,54,0.00,,,0.00,301.0,meteohub,2013-02-28 18:14:00,
2013-02-28 13:20:00,40.1,27.0,29.73,WSW,248,0.0,5.0,59,0.00,,,0.00,341.0,meteohub,2013-02-28 18:20:00,
2013-02-28 13:26:00,40.6,25.7,29.73,NE,51,1.0,4.0,55,0.00,,,0.00,606.0,meteohub,2013-02-28 18:26:00,
2013-02-28 13:32:00,41.0,25.7,29.73,NNE,21,3.0,8.0,54,0.00,,,0.00,221.0,meteohub,2013-02-28 18:32:00,
2013-02-28 13:37:00,40.6,25.3,29.73,NNW,342,2.0,10.0,54,0.00,,,0.00,171.0,meteohub,2013-02-28 18:37:00,
2013-02-28 13:42:00,40.3,25.3,29.73,NNE,13,2.0,10.0,55,0.00,,,0.00,185.0,meteohub,2013-02-28 18:42:00,
2013-02-28 13:47:00,40.3,25.3,29.73,NNE,13,0.0,10.0,55,0.00,,,0.00,253.0,meteohub,2013-02-28 18:47:00,
2013-02-28 13:52:00,40.1,25.7,29.73,NNW,344,1.0,14.0,56,0.00,,,0.00,223.0,meteohub,2013-02-28 18:52:00,
2013-02-28 13:57:00,40.1,25.7,29.73,NNE,19,1.0,14.0,56,0.00,,,0.00,241.0,meteohub,2013-02-28 18:57:00,
2013-02-28 14:02:00,39.9,25.0,29.73,North,355,1.0,14.0,55,0.00,,,0.00,186.0,meteohub,2013-02-28 19:02:00,
2013-02-28 14:07:00,39.9,26.4,29.73,North,355,1.0,9.0,58,0.00,,,0.00,199.0,meteohub,2013-02-28 19:07:00,
2013-02-28 14:12:00,39.9,26.8,29.73,NE,41,3.0,9.0,59,0.00,,,0.00,260.0,meteohub,2013-02-28 19:12:00,
2013-02-28 14:17:00,39.7,26.6,29.73,NNE,17,0.0,12.0,59,0.00,,,0.00,269.0,meteohub,2013-02-28 19:17:00,
2013-02-28 14:22:00,39.9,26.4,29.73,SSW,210,0.0,12.0,58,0.00,,,0.00,255.0,meteohub,2013-02-28 19:22:00,
2013-02-28 14:27:00,39.9,26.8,29.73,NNE,26,4.0,12.0,59,0.00,,,0.00,181.0,meteohub,2013-02-28 19:27:00,
2013-02-28 14:32:00,39.9,27.1,29.74,West,278,5.0,5.0,60,0.00,,,0.00,156.0,meteohub,2013-02-28 19:32:00,
2013-02-28 14:37:00,39.6,26.8,29.74,NNW,334,0.0,5.0,60,0.00,,,0.00,172.0,meteohub,2013-02-28 19:37:00,
2013-02-28 14:42:00,39.4,27.5,29.74,NNE,17,7.0,13.0,62,0.00,,,0.00,234.0,meteohub,2013-02-28 19:42:00,
2013-02-28 14:47:00,39.0,26.8,29.74,WSW,242,2.0,13.0,61,0.00,,,0.00,200.0,meteohub,2013-02-28 19:47:00,
2013-02-28 14:52:00,38.8,27.0,29.74,North,5,3.0,14.0,62,0.00,,,0.00,181.0,meteohub,2013-02-28 19:52:00,
2013-02-28 14:57:00,38.8,26.6,29.74,NNE,15,1.0,14.0,61,0.00,,,0.00,197.0,meteohub,2013-02-28 19:57:00,
2013-02-28 15:02:00,38.7,26.8,29.74,North,5,3.0,16.0,62,0.00,,,0.00,188.0,meteohub,2013-02-28 20:02:00,
2013-02-28 15:07:00,38.7,26.8,29.73,NNE,19,0.0,16.0,62,0.00,,,0.00,220.0,meteohub,2013-02-28 20:07:00,
2013-02-28 15:12:00,38.8,27.0,29.74,NNE,20,2.0,16.0,62,0.00,,,0.00,214.0,meteohub,2013-02-28 20:12:00,
2013-02-28 15:17:00,38.8,26.6,29.74,NNE,22,9.0,9.0,61,0.00,,,0.00,202.0,meteohub,2013-02-28 20:17:00,
2013-02-28 15:22:00,38.8,26.1,29.74,NNE,14,3.0,14.0,60,0.00,,,0.00,244.0,meteohub,2013-02-28 20:22:00,
2013-02-28 15:27:00,38.8,26.1,29.75,NNW,331,5.0,14.0,60,0.00,,,0.00,216.0,meteohub,2013-02-28 20:27:00,
2013-02-28 15:32:00,38.8,26.1,29.75,WSW,246,0.0,14.0,60,0.00,,,0.00,199.0,meteohub,2013-02-28 20:32:00,
2013-02-28 15:37:00,39.0,26.8,29.75,North,355,1.0,14.0,61,0.00,,,0.00,165.0,meteohub,2013-02-28 20:37:00,
2013-02-28 15:42:00,39.2,27.0,29.75,WSW,251,0.0,14.0,61,0.00,,,0.00,181.0,meteohub,2013-02-28 20:42:00,
2013-02-28 15:47:00,39.4,26.2,29.75,NNE,17,2.0,6.0,59,0.00,,,0.00,181.0,meteohub,2013-02-28 20:47:00,
2013-02-28 15:52:00,39.4,26.6,29.75,NNW,337,2.0,8.0,60,0.00,,,0.00,174.0,meteohub,2013-02-28 20:52:00,
2013-02-28 15:57:00,39.4,26.2,29.75,NNW,340,2.0,8.0,59,0.00,,,0.00,125.0,meteohub,2013-02-28 20:57:00,
2013-02-28 16:02:00,39.2,26.1,29.75,NNW,344,2.0,12.0,59,0.00,,,0.00,114.0,meteohub,2013-02-28 21:02:00,
2013-02-28 16:07:00,39.0,25.9,29.75,NNW,336,2.0,12.0,59,0.00,,,0.00,144.0,meteohub,2013-02-28 21:07:00,
2013-02-28 16:12:00,39.0,25.9,29.76,North,350,0.0,7.0,59,0.00,,,0.00,141.0,meteohub,2013-02-28 21:12:00,
2013-02-28 16:17:00,39.4,26.2,29.76,SW,234,1.0,6.0,59,0.00,,,0.00,123.0,meteohub,2013-02-28 21:17:00,
2013-02-28 16:22:00,39.6,26.1,29.76,NE,46,1.0,4.0,58,0.00,,,0.00,121.0,meteohub,2013-02-28 21:22:00,
2013-02-28 16:27:00,39.6,26.1,29.76,NE,36,1.0,3.0,58,0.00,,,0.00,135.0,meteohub,2013-02-28 21:27:00,
2013-02-28 16:32:00,39.6,25.5,29.76,NNE,15,1.0,4.0,57,0.00,,,0.00,123.0,meteohub,2013-02-28 21:32:00,
2013-02-28 16:37:00,39.6,25.2,29.76,NNW,333,1.0,5.0,56,0.00,,,0.00,102.0,meteohub,2013-02-28 21:37:00,
2013-02-28 16:42:00,39.6,25.2,29.76,NNW,343,2.0,5.0,56,0.00,,,0.00,76.0,meteohub,2013-02-28 21:42:00,
2013-02-28 16:47:00,39.4,25.0,29.76,North,5,6.0,6.0,56,0.00,,,0.00,86.0,meteohub,2013-02-28 21:47:00,
2013-02-28 16:52:00,39.0,24.3,29.77,NNE,29,2.0,6.0,55,0.00,,,0.00,95.0,meteohub,2013-02-28 21:52:00,
2013-02-28 16:57:00,38.8,24.1,29.77,SE,126,1.0,6.0,55,0.00,,,0.00,102.0,meteohub,2013-02-28 21:57:00,
2013-02-28 17:02:00,38.7,23.9,29.77,WNW,292,2.0,6.0,55,0.00,,,0.00,95.0,meteohub,2013-02-28 22:02:00,
2013-02-28 17:07:00,38.3,23.9,29.77,NNE,22,3.0,8.0,56,0.00,,,0.00,51.0,meteohub,2013-02-28 22:07:00,
2013-02-28 17:12:00,38.1,23.9,29.78,NNW,345,3.0,8.0,56,0.00,,,0.00,33.0,meteohub,2013-02-28 22:12:00,
2013-02-28 17:17:00,37.8,23.5,29.78,NNW,339,2.0,7.0,56,0.00,,,0.00,28.0,meteohub,2013-02-28 22:17:00,
2013-02-28 17:22:00,37.6,23.7,29.78,North,5,2.0,7.0,57,0.00,,,0.00,39.0,meteohub,2013-02-28 22:22:00,
2013-02-28 17:27:00,37.2,23.7,29.79,WSW,256,2.0,6.0,58,0.00,,,0.00,33.0,meteohub,2013-02-28 22:27:00,
2013-02-28 17:32:00,37.0,23.7,29.78,NNW,344,3.0,7.0,58,0.00,,,0.00,32.0,meteohub,2013-02-28 22:32:00,
2013-02-28 17:37:00,36.9,23.9,29.78,NNE,32,3.0,12.0,59,0.00,,,0.00,33.0,meteohub,2013-02-28 22:37:00,
2013-02-28 17:42:00,36.5,23.5,29.78,NNE,15,3.0,14.0,59,0.00,,,0.00,26.0,meteohub,2013-02-28 22:42:00,
2013-02-28 17:47:00,36.1,23.5,29.79,North,355,3.0,14.0,60,0.00,,,0.00,19.0,meteohub,2013-02-28 22:47:00,
2013-02-28 17:52:00,36.0,23.9,29.79,NNE,29,4.0,14.0,61,0.00,,,0.00,16.0,meteohub,2013-02-28 22:52:00,
2013-02-28 17:57:00,35.6,23.9,29.79,North,11,3.0,13.0,62,0.00,,,0.00,14.0,meteohub,2013-02-28 22:57:00,
2013-02-28 18:02:00,35.4,24.1,29.79,NNW,347,4.0,13.0,63,0.00,,,0.00,12.0,meteohub,2013-02-28 23:02:00,
2013-02-28 18:07:00,35.1,24.1,29.80,North,5,4.0,23.0,64,0.00,,,0.00,11.0,meteohub,2013-02-28 23:07:00,
2013-02-28 18:12:00,34.5,23.5,29.80,NNE,15,2.0,23.0,64,0.00,,,0.00,9.0,meteohub,2013-02-28 23:12:00,
2013-02-28 18:17:00,34.3,23.4,29.80,NNW,343,3.0,23.0,64,0.00,,,0.00,7.0,meteohub,2013-02-28 23:17:00,
2013-02-28 18:22:00,34.0,23.5,29.80,NNE,15,4.0,16.0,65,0.00,,,0.00,5.0,meteohub,2013-02-28 23:22:00,
2013-02-28 18:27:00,33.8,23.4,29.80,North,0,3.0,18.0,65,0.00,,,0.00,0.0,meteohub,2013-02-28 23:27:00,
2013-02-28 18:32:00,33.4,23.4,29.80,North,355,3.0,18.0,66,0.00,,,0.00,0.0,meteohub,2013-02-28 23:32:00,
2013-02-28 18:37:00,33.3,23.2,29.81,North,350,3.0,18.0,66,0.00,,,0.00,0.0,meteohub,2013-02-28 23:37:00,
2013-02-28 18:42:00,33.1,23.4,29.81,North,0,4.0,18.0,67,0.00,,,0.00,0.0,meteohub,2013-02-28 23:42:00,
2013-02-28 18:47:00,32.7,23.0,29.81,NNW,331,2.0,18.0,67,0.00,,,0.00,0.0,meteohub,2013-02-28 23:47:00,
2013-02-28 18:52:00,32.5,22.8,29.81,NW,325,3.0,21.0,67,0.00,,,0.00,0.0,meteohub,2013-02-28 23:52:00,
2013-02-28 18:57:00,32.4,23.0,29.81,NNE,21,5.0,21.0,68,0.00,,,0.00,0.0,meteohub,2013-02-28 23:57:00,
2013-02-28 19:02:00,32.0,23.0,29.82,NNW,332,4.0,21.0,69,0.00,,,0.00,0.0,meteohub,2013-03-01 00:02:00,
2013-02-28 19:07:00,31.6,22.6,29.82,North,355,4.0,21.0,69,0.00,,,0.00,0.0,meteohub,2013-03-01 00:07:00,
2013-02-28 19:12:00,31.5,22.8,29.82,NW,317,4.0,21.0,70,0.00,,,0.00,0.0,meteohub,2013-03-01 00:12:00,
2013-02-28 19:17:00,31.3,22.6,29.82,WNW,297,3.0,21.0,70,0.00,,,0.00,0.0,meteohub,2013-03-01 00:17:00,
2013-02-28 19:22:00,31.1,22.8,29.82,North,11,6.0,21.0,71,0.00,,,0.00,0.0,meteohub,2013-03-01 00:22:00,
2013-02-28 19:27:00,30.9,22.6,29.82,NNW,328,1.0,18.0,71,0.00,,,0.00,0.0,meteohub,2013-03-01 00:27:00,
2013-02-28 19:32:00,30.7,22.5,29.82,West,270,4.0,18.0,71,0.00,,,0.00,0.0,meteohub,2013-03-01 00:32:00,
2013-02-28 19:37:00,30.7,22.5,29.82,NNW,340,6.0,18.0,71,0.00,,,0.00,0.0,meteohub,2013-03-01 00:37:00,
2013-02-28 19:42:00,30.6,22.3,29.82,North,0,4.0,20.0,71,0.00,,,0.00,0.0,meteohub,2013-03-01 00:42:00,
2013-02-28 19:47:00,30.6,22.3,29.82,NNW,334,5.0,20.0,71,0.00,,,0.00,0.0,meteohub,2013-03-01 00:47:00,
2013-02-28 19:52:00,30.6,22.3,29.82,North,355,2.0,20.0,71,0.00,,,0.00,0.0,meteohub,2013-03-01 00:52:00,
2013-02-28 19:57:00,30.6,22.3,29.83,North,5,1.0,20.0,71,0.00,,,0.00,0.0,meteohub,2013-03-01 00:57:00,
2013-02-28 20:02:00,30.4,22.1,29.82,NNW,334,2.0,20.0,71,0.00,,,0.00,0.0,meteohub,2013-03-01 01:02:00,
2013-02-28 20:07:00,30.4,22.1,29.81,North,350,15.0,15.0,71,0.00,,,0.00,0.0,meteohub,2013-03-01 01:07:00,
2013-02-28 20:12:00,30.6,22.3,29.82,North,355,4.0,20.0,71,0.00,,,0.00,0.0,meteohub,2013-03-01 01:12:00,
2013-02-28 20:17:00,30.6,21.9,29.83,NNW,341,4.0,20.0,70,0.00,,,0.00,0.0,meteohub,2013-03-01 01:17:00,
2013-02-28 20:22:00,30.6,22.3,29.82,SW,236,0.0,20.0,71,0.00,,,0.00,0.0,meteohub,2013-03-01 01:22:00,
2013-02-28 20:27:00,30.4,21.7,29.81,NW,312,3.0,20.0,70,0.00,,,0.00,0.0,meteohub,2013-03-01 01:27:00,
2013-02-28 20:32:00,30.4,21.7,29.81,SSW,200,4.0,17.0,70,0.00,,,0.00,0.0,meteohub,2013-03-01 01:32:00,
2013-02-28 20:37:00,30.4,21.7,29.81,North,355,9.0,19.0,70,0.00,,,0.00,0.0,meteohub,2013-03-01 01:37:00,
2013-02-28 20:42:00,30.2,21.6,29.81,North,355,5.0,19.0,70,0.00,,,0.00,0.0,meteohub,2013-03-01 01:42:00,
2013-02-28 20:47:00,30.2,21.6,29.81,NNW,346,8.0,17.0,70,0.00,,,0.00,0.0,meteohub,2013-03-01 01:47:00,
2013-02-28 20:52:00,30.2,21.6,29.81,North,355,4.0,28.0,70,0.00,,,0.00,0.0,meteohub,2013-03-01 01:52:00,
2013-02-28 20:57:00,30.0,21.4,29.81,SW,234,4.0,28.0,70,0.00,,,0.00,0.0,meteohub,2013-03-01 01:57:00,
2013-02-28 21:02:00,30.0,21.4,29.81,NNE,17,3.0,24.0,70,0.00,,,0.00,0.0,meteohub,2013-03-01 02:02:00,
2013-02-28 21:07:00,30.0,21.7,29.81,NNW,348,4.0,18.0,71,0.00,,,0.00,0.0,meteohub,2013-03-01 02:07:00,
2013-02-28 21:12:00,30.0,21.4,29.82,NNW,333,4.0,18.0,70,0.00,,,0.00,0.0,meteohub,2013-03-01 02:12:00,
2013-02-28 21:17:00,30.2,21.6,29.82,NNW,329,2.0,28.0,70,0.00,,,0.00,0.0,meteohub,2013-03-01 02:17:00,
2013-02-28 21:22:00,30.4,21.7,29.81,North,0,4.0,28.0,70,0.00,,,0.00,0.0,meteohub,2013-03-01 02:22:00,
2013-02-28 21:27:00,30.4,21.7,29.81,NNE,13,2.0,28.0,70,0.00,,,0.00,0.0,meteohub,2013-03-01 02:27:00,
2013-02-28 21:32:00,30.4,21.7,29.81,North,350,1.0,20.0,70,0.00,,,0.00,0.0,meteohub,2013-03-01 02:32:00,
2013-02-28 21:37:00,30.2,21.6,29.81,NE,49,6.0,20.0,70,0.00,,,0.00,0.0,meteohub,2013-03-01 02:37:00,
2013-02-28 21:42:00,30.2,21.6,29.81,NW,315,6.0,12.0,70,0.00,,,0.00,0.0,meteohub,2013-03-01 02:42:00,
2013-02-28 21:47:00,30.2,21.9,29.83,North,355,0.0,15.0,71,0.00,,,0.00,0.0,meteohub,2013-03-01 02:47:00,
2013-02-28 21:52:00,30.0,23.4,29.83,SW,216,3.0,15.0,76,0.00,,,0.00,0.0,meteohub,2013-03-01 02:52:00,
2013-02-28 21:57:00,30.0,21.7,29.83,WNW,293,3.0,15.0,71,0.00,,,0.00,0.0,meteohub,2013-03-01 02:57:00,
2013-02-28 22:02:00,30.0,22.1,29.83,SW,225,3.0,12.0,72,0.00,,,0.00,0.0,meteohub,2013-03-01 03:02:00,
2013-02-28 22:07:00,29.8,21.9,29.83,NW,316,3.0,11.0,72,0.00,,,0.00,0.0,meteohub,2013-03-01 03:07:00,
2013-02-28 22:12:00,29.8,21.9,29.83,WSW,244,0.0,11.0,72,0.00,,,0.00,0.0,meteohub,2013-03-01 03:12:00,
2013-02-28 22:17:00,29.8,22.3,29.83,SSW,209,6.0,11.0,73,0.00,,,0.00,0.0,meteohub,2013-03-01 03:17:00,
2013-02-28 22:22:00,29.8,22.3,29.83,NNW,343,11.0,11.0,73,0.00,,,0.00,0.0,meteohub,2013-03-01 03:22:00,
2013-02-28 22:27:00,29.8,22.3,29.83,SSW,194,4.0,18.0,73,0.00,,,0.00,0.0,meteohub,2013-03-01 03:27:00,
2013-02-28 22:32:00,29.8,22.3,29.83,SSW,204,1.0,20.0,73,0.00,,,0.00,0.0,meteohub,2013-03-01 03:32:00,
2013-02-28 22:37:00,29.8,22.6,29.83,West,274,3.0,25.0,74,0.00,,,0.00,0.0,meteohub,2013-03-01 03:37:00,
2013-02-28 22:42:00,29.8,22.6,29.82,West,267,4.0,25.0,74,0.00,,,0.00,0.0,meteohub,2013-03-01 03:42:00,
2013-02-28 22:47:00,29.7,22.5,29.82,NNW,334,3.0,25.0,74,0.00,,,0.00,0.0,meteohub,2013-03-01 03:47:00,
2013-02-28 22:52:00,29.7,22.6,29.81,NW,314,4.0,11.0,75,0.00,,,0.00,0.0,meteohub,2013-03-01 03:52:00,
2013-02-28 22:57:00,29.7,22.6,29.81,West,268,2.0,19.0,75,0.00,,,0.00,0.0,meteohub,2013-03-01 03:57:00,
2013-02-28 23:02:00,29.5,22.5,29.81,NNW,335,2.0,19.0,75,0.00,,,0.00,0.0,meteohub,2013-03-01 04:02:00,
2013-02-28 23:07:00,29.7,22.6,29.82,NNW,340,3.0,19.0,75,0.00,,,0.00,0.0,meteohub,2013-03-01 04:07:00,
2013-02-28 23:12:00,29.5,22.8,29.82,NW,306,2.0,17.0,76,0.00,,,0.00,0.0,meteohub,2013-03-01 04:12:00,
2013-02-28 23:17:00,29.5,22.8,29.81,NW,323,11.0,17.0,76,0.00,,,0.00,0.0,meteohub,2013-03-01 04:17:00,
2013-02-28 23:22:00,29.5,22.8,29.83,SW,228,0.0,17.0,76,0.00,,,0.00,0.0,meteohub,2013-03-01 04:22:00,
2013-02-28 23:27:00,29.5,22.8,29.82,WSW,238,3.0,16.0,76,0.00,,,0.00,0.0,meteohub,2013-03-01 04:27:00,
2013-02-28 23:32:00,29.5,23.2,29.83,East,94,1.0,17.0,77,0.00,,,0.00,0.0,meteohub,2013-03-01 04:32:00,
2013-02-28 23:37:00,29.5,23.2,29.82,WSW,240,3.0,18.0,77,0.00,,,0.00,0.0,meteohub,2013-03-01 04:37:00,
2013-02-28 23:42:00,29.3,23.0,29.81,SW,224,2.0,18.0,77,0.00,,,0.00,0.0,meteohub,2013-03-01 04:42:00,
2013-02-28 23:48:00,29.5,23.2,29.81,North,9,4.0,18.0,77,0.00,,,0.00,0.0,meteohub,2013-03-01 04:48:00,
2013-02-28 23:54:00,29.5,23.2,29.81,WNW,291,2.0,21.0,77,0.00,,,0.00,0.0,meteohub,2013-03-01 04:54:00,